GLV1024 SBRF-SBFN

Flight info

Callsign GLV1024
Flight time 0h 53m
Altitude 27000
Route FNR
Aircraft B738/M-SDE2E3FGHIRWXY/LB1

Departure

Time 2026-04-24 00:53
Airport Recife/Guararapes - Gilberto Freyre International Airport (SBRF)

Arrival

Time 2026-04-24 01:46
Airport Fernando de Noronha Airport (SBFN)
Time Latitude Longitude Altitude Speed Heading
2026-04-24 00:42 -8.12128 -34.92866 45 ft 0 kts 214°
2026-04-24 00:43 -8.12128 -34.92865 45 ft 0 kts 214°
2026-04-24 00:43 -8.12121 -34.92860 45 ft 1 kts 218°
2026-04-24 00:44 -8.12115 -34.92856 45 ft 1 kts 205°
2026-04-24 00:44 -8.12105 -34.92854 45 ft 1 kts 159°
2026-04-24 00:44 -8.12098 -34.92858 45 ft 1 kts 127°
2026-04-24 00:44 -8.12096 -34.92861 45 ft 0 kts 125°
2026-04-24 00:46 -8.12098 -34.92859 45 ft 0 kts 135°
2026-04-24 00:46 -8.12102 -34.92856 45 ft 1 kts 136°
2026-04-24 00:47 -8.12122 -34.92834 45 ft 7 kts 130°
2026-04-24 00:47 -8.12167 -34.92773 45 ft 14 kts 124°
2026-04-24 00:47 -8.12227 -34.92685 46 ft 16 kts 124°
2026-04-24 00:47 -8.12266 -34.92614 46 ft 8 kts 79°
2026-04-24 00:48 -8.12213 -34.92607 45 ft 6 kts 349°
2026-04-24 00:48 -8.12160 -34.92594 45 ft 9 kts 19°
2026-04-24 00:48 -8.12080 -34.92574 45 ft 14 kts 12°
2026-04-24 00:48 -8.11971 -34.92551 45 ft 17 kts
2026-04-24 00:49 -8.11863 -34.92570 45 ft 14 kts 343°
2026-04-24 00:49 -8.11764 -34.92601 44 ft 15 kts 342°
2026-04-24 00:49 -8.11663 -34.92634 42 ft 15 kts 341°
2026-04-24 00:49 -8.11574 -34.92657 40 ft 10 kts 349°
2026-04-24 00:50 -8.11550 -34.92661 40 ft 3 kts 349°
2026-04-24 00:50 -8.11514 -34.92667 39 ft 6 kts 355°
2026-04-24 00:50 -8.11470 -34.92668 38 ft 3 kts 352°
2026-04-24 00:50 -8.11463 -34.92682 38 ft 1 kts 266°
2026-04-24 00:51 -8.11474 -34.92693 38 ft 1 kts 198°
2026-04-24 00:51 -8.11481 -34.92691 38 ft 0 kts 172°
2026-04-24 00:51 -8.11491 -34.92688 39 ft 3 kts 163°
2026-04-24 00:51 -8.11519 -34.92680 39 ft 4 kts 163°
2026-04-24 00:52 -8.11559 -34.92668 40 ft 4 kts 163°
2026-04-24 00:52 -8.11608 -34.92652 41 ft 26 kts 162°
2026-04-24 00:52 -8.12050 -34.92508 45 ft 106 kts 162°
2026-04-24 00:52 -8.12974 -34.92205 50 ft 170 kts 162°
2026-04-24 00:53 -8.14238 -34.91789 248 ft 204 kts 162°
2026-04-24 00:53 -8.15704 -34.91342 231 ft 251 kts 165°
2026-04-24 00:53 -8.17420 -34.90862 876 ft 264 kts 162°
2026-04-24 00:53 -8.19182 -34.90241 1704 ft 270 kts 160°
2026-04-24 00:54 -8.20810 -34.89467 2873 ft 261 kts 140°
2026-04-24 00:54 -8.21828 -34.88013 3860 ft 258 kts 106°
2026-04-24 00:54 -8.21870 -34.86242 4687 ft 260 kts 75°
2026-04-24 00:54 -8.21148 -34.84571 5451 ft 264 kts 54°
2026-04-24 00:55 -8.19806 -34.83316 5958 ft 268 kts 27°
2026-04-24 00:55 -8.18143 -34.82490 6470 ft 267 kts 36°
2026-04-24 00:55 -8.16957 -34.81022 6981 ft 277 kts 63°
2026-04-24 00:55 -8.16087 -34.79265 7499 ft 284 kts 61°
2026-04-24 00:56 -8.15026 -34.77604 7987 ft 285 kts 53°
2026-04-24 00:56 -8.13770 -34.76028 8513 ft 286 kts 49°
2026-04-24 00:56 -8.12485 -34.74531 9132 ft 288 kts 49°
2026-04-24 00:56 -8.11147 -34.72995 9764 ft 292 kts 49°
2026-04-24 00:57 -8.09811 -34.71460 10303 ft 299 kts 49°
2026-04-24 00:57 -8.08395 -34.69769 10146 ft 329 kts 52°
2026-04-24 00:57 -8.05607 -34.66027 10117 ft 336 kts 53°
2026-04-24 00:58 -8.04225 -34.64159 10120 ft 336 kts 53°
2026-04-24 00:58 -8.02819 -34.62268 10194 ft 333 kts 53°
2026-04-24 00:58 -8.01435 -34.60411 10680 ft 334 kts 53°
2026-04-24 00:58 -8.00040 -34.58542 11308 ft 341 kts 53°
2026-04-24 00:59 -7.98604 -34.56619 11994 ft 344 kts 53°
2026-04-24 00:59 -7.97150 -34.54674 12687 ft 348 kts 53°
2026-04-24 00:59 -7.95661 -34.52739 13361 ft 351 kts 49°
2026-04-24 00:59 -7.93919 -34.50997 14031 ft 355 kts 40°
2026-04-24 01:00 -7.91943 -34.49556 14638 ft 359 kts 31°
2026-04-24 01:00 -7.89670 -34.48353 15128 ft 369 kts 25°
2026-04-24 01:00 -7.87345 -34.47266 15633 ft 376 kts 24°
2026-04-24 01:00 -7.84951 -34.46162 16239 ft 380 kts 24°
2026-04-24 01:01 -7.82567 -34.45054 16827 ft 383 kts 24°
2026-04-24 01:01 -7.80137 -34.43909 17413 ft 386 kts 24°
2026-04-24 01:01 -7.77722 -34.42754 17976 ft 389 kts 24°
2026-04-24 01:01 -7.75262 -34.41560 18537 ft 392 kts 24°
2026-04-24 01:02 -7.72814 -34.40355 19074 ft 395 kts 25°
2026-04-24 01:02 -7.70320 -34.39130 19606 ft 398 kts 24°
2026-04-24 01:02 -7.67850 -34.37930 20117 ft 400 kts 24°
2026-04-24 01:02 -7.65324 -34.36709 20617 ft 403 kts 24°
2026-04-24 01:03 -7.62787 -34.35487 21111 ft 405 kts 23°
2026-04-24 01:03 -7.60239 -34.34262 21588 ft 408 kts 23°
2026-04-24 01:03 -7.57698 -34.33042 22039 ft 410 kts 23°
2026-04-24 01:03 -7.55100 -34.31796 22503 ft 412 kts 23°
2026-04-24 01:04 -7.52508 -34.30554 22943 ft 414 kts 23°
2026-04-24 01:04 -7.49897 -34.29304 23380 ft 416 kts 22°
2026-04-24 01:04 -7.47293 -34.28058 23803 ft 418 kts 22°
2026-04-24 01:04 -7.44688 -34.26812 24213 ft 420 kts 22°
2026-04-24 01:05 -7.42046 -34.25548 24622 ft 422 kts 22°
2026-04-24 01:05 -7.39377 -34.24272 25018 ft 423 kts 22°
2026-04-24 01:05 -7.36740 -34.23012 25406 ft 425 kts 22°
2026-04-24 01:05 -7.34078 -34.21740 25782 ft 426 kts 22°
2026-04-24 01:06 -7.31380 -34.20450 26156 ft 428 kts 22°
2026-04-24 01:06 -7.28681 -34.19161 26517 ft 429 kts 22°
2026-04-24 01:06 -7.26021 -34.17891 26817 ft 431 kts 22°
2026-04-24 01:06 -7.23274 -34.16579 26971 ft 436 kts 22°
2026-04-24 01:07 -7.20544 -34.15276 26964 ft 439 kts 22°
2026-04-24 01:07 -7.17813 -34.13971 26963 ft 436 kts 22°
2026-04-24 01:07 -7.15061 -34.12657 26965 ft 433 kts 22°
2026-04-24 01:07 -7.12370 -34.11372 26967 ft 433 kts 22°
2026-04-24 01:08 -7.09619 -34.10059 26967 ft 435 kts 22°
2026-04-24 01:08 -7.06892 -34.08758 26966 ft 435 kts 22°
2026-04-24 01:08 -7.04178 -34.07463 26966 ft 435 kts 22°
2026-04-24 01:08 -7.01421 -34.06148 26965 ft 435 kts 22°
2026-04-24 01:09 -6.98688 -34.04843 26966 ft 436 kts 22°
2026-04-24 01:09 -6.95956 -34.03541 26966 ft 436 kts 22°
2026-04-24 01:09 -6.93246 -34.02249 26966 ft 437 kts 22°
2026-04-24 01:09 -6.90485 -34.00932 26966 ft 438 kts 22°
2026-04-24 01:10 -6.87747 -33.99627 26966 ft 438 kts 22°
2026-04-24 01:10 -6.84976 -33.98306 26966 ft 439 kts 22°
2026-04-24 01:10 -6.82221 -33.96993 26966 ft 438 kts 22°
2026-04-24 01:10 -6.79455 -33.95674 26966 ft 438 kts 22°
2026-04-24 01:11 -6.76735 -33.94378 26966 ft 438 kts 22°
2026-04-24 01:11 -6.73977 -33.93064 26966 ft 438 kts 22°
2026-04-24 01:11 -6.71208 -33.91745 26966 ft 438 kts 22°
2026-04-24 01:11 -6.68471 -33.90441 26966 ft 438 kts 22°
2026-04-24 01:12 -6.65713 -33.89128 26966 ft 438 kts 22°
2026-04-24 01:12 -6.62952 -33.87812 26966 ft 438 kts 22°
2026-04-24 01:12 -6.60214 -33.86509 26966 ft 438 kts 22°
2026-04-24 01:12 -6.57452 -33.85194 26966 ft 438 kts 22°
2026-04-24 01:13 -6.54717 -33.83892 26966 ft 438 kts 22°
2026-04-24 01:13 -6.51954 -33.82577 26966 ft 438 kts 22°
2026-04-24 01:13 -6.49191 -33.81262 26966 ft 438 kts 22°
2026-04-24 01:13 -6.46474 -33.79969 26966 ft 438 kts 22°
2026-04-24 01:14 -6.43713 -33.78655 26966 ft 438 kts 22°
2026-04-24 01:14 -6.40930 -33.77331 26966 ft 438 kts 22°
2026-04-24 01:14 -6.38195 -33.76031 26966 ft 438 kts 22°
2026-04-24 01:14 -6.35432 -33.74716 26966 ft 438 kts 22°
2026-04-24 01:15 -6.32702 -33.73418 26966 ft 438 kts 22°
2026-04-24 01:15 -6.29962 -33.72115 26966 ft 438 kts 22°
2026-04-24 01:15 -6.27196 -33.70800 26966 ft 438 kts 22°
2026-04-24 01:15 -6.24446 -33.69493 26966 ft 438 kts 22°
2026-04-24 01:16 -6.21722 -33.68198 26966 ft 438 kts 22°
2026-04-24 01:16 -6.18961 -33.66885 26966 ft 438 kts 22°
2026-04-24 01:16 -6.16214 -33.65580 26966 ft 438 kts 22°
2026-04-24 01:16 -6.13454 -33.64269 26966 ft 438 kts 22°
2026-04-24 01:17 -6.10717 -33.62968 26966 ft 438 kts 22°
2026-04-24 01:17 -6.07952 -33.61655 26966 ft 438 kts 22°
2026-04-24 01:17 -6.05180 -33.60338 26966 ft 438 kts 22°
2026-04-24 01:17 -6.02442 -33.59037 26966 ft 438 kts 22°
2026-04-24 01:18 -5.99670 -33.57721 26966 ft 438 kts 22°
2026-04-24 01:18 -5.96937 -33.56424 26966 ft 438 kts 22°
2026-04-24 01:18 -5.94169 -33.55109 26966 ft 438 kts 22°
2026-04-24 01:18 -5.91416 -33.53802 26966 ft 438 kts 22°
2026-04-24 01:19 -5.88670 -33.52499 26966 ft 438 kts 22°
2026-04-24 01:19 -5.85921 -33.51194 26966 ft 439 kts 22°
2026-04-24 01:19 -5.83157 -33.49882 26966 ft 438 kts 22°
2026-04-24 01:19 -5.80429 -33.48588 26966 ft 438 kts 22°
2026-04-24 01:20 -5.77675 -33.47281 26966 ft 438 kts 22°
2026-04-24 01:20 -5.74918 -33.45973 26966 ft 438 kts 22°
2026-04-24 01:20 -5.72162 -33.44665 26966 ft 438 kts 22°
2026-04-24 01:20 -5.69399 -33.43355 26966 ft 438 kts 22°
2026-04-24 01:21 -5.66662 -33.42057 26966 ft 438 kts 22°
2026-04-24 01:21 -5.63923 -33.40758 26966 ft 438 kts 22°
2026-04-24 01:21 -5.61162 -33.39449 26966 ft 438 kts 22°
2026-04-24 01:21 -5.58404 -33.38142 26965 ft 438 kts 22°
2026-04-24 01:22 -5.55646 -33.36834 26961 ft 438 kts 22°
2026-04-24 01:22 -5.52886 -33.35526 26956 ft 438 kts 22°
2026-04-24 01:22 -5.50117 -33.34213 26951 ft 438 kts 22°
2026-04-24 01:22 -5.47372 -33.32912 26946 ft 439 kts 22°
2026-04-24 01:23 -5.44615 -33.31606 26942 ft 439 kts 22°
2026-04-24 01:23 -5.41835 -33.30289 26939 ft 439 kts 22°
2026-04-24 01:23 -5.39098 -33.28992 26939 ft 439 kts 22°
2026-04-24 01:23 -5.36334 -33.27683 26939 ft 439 kts 22°
2026-04-24 01:24 -5.33588 -33.26382 26937 ft 436 kts 22°
2026-04-24 01:24 -5.30886 -33.25100 26932 ft 420 kts 22°
2026-04-24 01:24 -5.28285 -33.23866 26938 ft 402 kts 22°
2026-04-24 01:24 -5.25805 -33.22691 26941 ft 395 kts 22°
2026-04-24 01:25 -5.23307 -33.21511 26943 ft 400 kts 22°
2026-04-24 01:25 -5.20788 -33.20321 26941 ft 404 kts 22°
2026-04-24 01:25 -5.18250 -33.19121 26938 ft 404 kts 22°
2026-04-24 01:25 -5.15686 -33.17908 26937 ft 401 kts 22°
2026-04-24 01:26 -5.13167 -33.16716 26894 ft 397 kts 22°
2026-04-24 01:26 -5.10699 -33.15547 26476 ft 392 kts 22°
2026-04-24 01:26 -5.08241 -33.14384 25973 ft 390 kts 22°
2026-04-24 01:26 -5.05790 -33.13225 25481 ft 387 kts 22°
2026-04-24 01:27 -5.03389 -33.12090 24998 ft 384 kts 22°
2026-04-24 01:27 -5.00968 -33.10945 24512 ft 382 kts 22°
2026-04-24 01:27 -4.98582 -33.09817 24029 ft 379 kts 23°
2026-04-24 01:27 -4.96211 -33.08696 23549 ft 377 kts 23°
2026-04-24 01:28 -4.93866 -33.07587 23074 ft 375 kts 23°
2026-04-24 01:28 -4.91510 -33.06481 22607 ft 372 kts 26°
2026-04-24 01:28 -4.89126 -33.05470 22122 ft 368 kts 24°
2026-04-24 01:28 -4.86774 -33.04526 21652 ft 364 kts 24°
2026-04-24 01:29 -4.84460 -33.03565 21192 ft 360 kts 25°
2026-04-24 01:29 -4.82178 -33.02575 20735 ft 356 kts 26°
2026-04-24 01:29 -4.79929 -33.01559 20277 ft 352 kts 27°
2026-04-24 01:29 -4.77731 -33.00531 19828 ft 349 kts 27°
2026-04-24 01:30 -4.75567 -32.99491 19384 ft 346 kts 28°
2026-04-24 01:30 -4.73427 -32.98449 18942 ft 343 kts 28°
2026-04-24 01:30 -4.71310 -32.97380 18500 ft 340 kts 30°
2026-04-24 01:30 -4.69214 -32.96267 18059 ft 337 kts 30°
2026-04-24 01:31 -4.67145 -32.95189 17625 ft 335 kts 29°
2026-04-24 01:31 -4.65091 -32.94155 17195 ft 333 kts 28°
2026-04-24 01:31 -4.63017 -32.93126 16762 ft 331 kts 28°
2026-04-24 01:31 -4.60967 -32.92116 16334 ft 329 kts 28°
2026-04-24 01:32 -4.58913 -32.91115 15906 ft 328 kts 28°
2026-04-24 01:32 -4.56870 -32.90130 15478 ft 326 kts 27°
2026-04-24 01:32 -4.54814 -32.89151 15052 ft 325 kts 27°
2026-04-24 01:32 -4.52777 -32.88185 14628 ft 324 kts 27°
2026-04-24 01:33 -4.50762 -32.87232 14207 ft 323 kts 27°
2026-04-24 01:33 -4.48716 -32.86266 13779 ft 323 kts 27°
2026-04-24 01:33 -4.46712 -32.85319 13359 ft 323 kts 26°
2026-04-24 01:33 -4.44726 -32.84381 12942 ft 322 kts 26°
2026-04-24 01:34 -4.42658 -32.83405 12507 ft 322 kts 26°
2026-04-24 01:34 -4.40638 -32.82451 12083 ft 321 kts 26°
2026-04-24 01:34 -4.38636 -32.81506 11662 ft 320 kts 26°
2026-04-24 01:34 -4.36625 -32.80557 11238 ft 319 kts 26°
2026-04-24 01:35 -4.34626 -32.79612 10816 ft 318 kts 26°
2026-04-24 01:35 -4.32624 -32.78668 10396 ft 317 kts 26°
2026-04-24 01:35 -4.30647 -32.77735 10170 ft 309 kts 26°
2026-04-24 01:35 -4.28745 -32.76839 10048 ft 294 kts 26°
2026-04-24 01:36 -4.26951 -32.75994 9888 ft 278 kts 26°
2026-04-24 01:36 -4.25236 -32.75186 9549 ft 270 kts 26°
2026-04-24 01:36 -4.23543 -32.74387 9197 ft 264 kts 26°
2026-04-24 01:36 -4.21904 -32.73614 8884 ft 265 kts 26°
2026-04-24 01:37 -4.20189 -32.72803 8558 ft 275 kts 26°
2026-04-24 01:37 -4.18483 -32.71998 8214 ft 273 kts 26°
2026-04-24 01:37 -4.16762 -32.71186 7873 ft 274 kts 26°
2026-04-24 01:37 -4.15030 -32.70369 7532 ft 274 kts 26°
2026-04-24 01:38 -4.13308 -32.69557 7195 ft 273 kts 26°
2026-04-24 01:38 -4.11585 -32.68744 6858 ft 273 kts 26°
2026-04-24 01:38 -4.09892 -32.67946 6526 ft 273 kts 26°
2026-04-24 01:38 -4.08153 -32.67125 6185 ft 272 kts 26°
2026-04-24 01:39 -4.06443 -32.66319 5850 ft 272 kts 26°
2026-04-24 01:39 -4.04769 -32.65530 5517 ft 263 kts 26°
2026-04-24 01:39 -4.03152 -32.64768 5245 ft 253 kts 26°
2026-04-24 01:39 -4.01579 -32.64027 4940 ft 245 kts 26°
2026-04-24 01:40 -4.00031 -32.63297 4659 ft 252 kts 25°
2026-04-24 01:40 -3.98431 -32.62542 4336 ft 258 kts 25°
2026-04-24 01:40 -3.96815 -32.61780 4182 ft 247 kts 25°
2026-04-24 01:40 -3.95314 -32.61076 4096 ft 236 kts 24°
2026-04-24 01:41 -3.93759 -32.60559 3965 ft 229 kts 12°
2026-04-24 01:41 -3.92195 -32.60351 3639 ft 228 kts
2026-04-24 01:41 -3.90618 -32.60235 3157 ft 228 kts
2026-04-24 01:41 -3.89091 -32.60130 2922 ft 211 kts
2026-04-24 01:42 -3.87699 -32.60030 2748 ft 193 kts
2026-04-24 01:42 -3.86433 -32.59829 2649 ft 175 kts 19°
2026-04-24 01:42 -3.85395 -32.59254 2532 ft 168 kts 41°
2026-04-24 01:42 -3.84693 -32.58387 2443 ft 156 kts 63°
2026-04-24 01:43 -3.84369 -32.57352 2466 ft 158 kts 83°
2026-04-24 01:43 -3.84368 -32.56230 2417 ft 160 kts 93°
2026-04-24 01:43 -3.84453 -32.55125 2395 ft 159 kts 94°
2026-04-24 01:43 -3.84565 -32.54024 2255 ft 161 kts 96°
2026-04-24 01:44 -3.84691 -32.52906 2054 ft 158 kts 96°
2026-04-24 01:44 -3.84811 -32.51809 1881 ft 157 kts 96°
2026-04-24 01:44 -3.84925 -32.50721 1702 ft 157 kts 95°
2026-04-24 01:44 -3.85033 -32.49649 1481 ft 157 kts 95°
2026-04-24 01:45 -3.85141 -32.48563 1245 ft 156 kts 95°
2026-04-24 01:45 -3.85245 -32.47474 1041 ft 156 kts 95°
2026-04-24 01:45 -3.85339 -32.46404 878 ft 153 kts 92°
2026-04-24 01:45 -3.85329 -32.45351 764 ft 149 kts 87°
2026-04-24 01:46 -3.85315 -32.44290 531 ft 154 kts 91°
2026-04-24 01:46 -3.85372 -32.43206 311 ft 155 kts 94°
2026-04-24 01:46 -3.85458 -32.42175 197 ft 119 kts 90°
2026-04-24 01:46 -3.85487 -32.41659 202 ft 39 kts 94°
2026-04-24 01:47 -3.85493 -32.41557 200 ft 3 kts 93°
2026-04-24 01:47 -3.85494 -32.41544 200 ft 2 kts 93°
2026-04-24 01:47 -3.85091 -32.47596 1036 ft 157 kts 94°
2026-04-24 01:47 -3.85166 -32.46525 824 ft 141 kts 94°
2026-04-24 01:48 -3.85235 -32.45571 465 ft 144 kts 94°
2026-04-24 01:48 -3.85286 -32.44883 26 ft 133 kts 94°
2026-04-24 01:48 -3.85392 -32.43071 200 ft 0 kts 94°